CZ-4B DEB, 40531

Orbit data source: Space-Track

CZ-4B DEB, 40531 is space debris in LEO originally from a launch on Fri, 25 Oct 2013 UTC launched from the Jiuquan Satellite Launch Center, China (JSC). Debris objects in space refer to the collection of defunct objects orbiting the Earth. Examples of debris include non-operational satellites, rocket bodies, and fragments generated from explosions, collisions, or faulty payload assembly.

Loading next visibility...
Identifier
40531, 2013-057D
Orbit
LEO
Country
Flag of CNCN / PRC
Related business
Manufacturer
SAST
Mission
Spacecraft
Bus & Motor
Unknown
Mass
Unknown
Launch date (UTC)
2013-10-25 (12 years ago)
Launch vehicle
Unknown
Launch site
Jiuquan Satellite Launch Center, China (JSC)
Object type
Payload
Rocket body
Debris
Shape & HBR
Unknown
Radar Cross Section
Small (<0.1 m²)

Expand to show TLE details & history
Last TLE update: 13 hours ago

TLE from 13 hours ago
0 CZ-4B DEB
1 40531U 13057D   25260.96760134  .00006156  00000-0  11308-2 0  9993
2 40531  74.9736   1.3720 0187074 152.3945 208.7313 14.55078933552179
Epoch: 2025-09-17T23:13Z
TLE epoch observation values (Epoch: 2025-09-17T23:13:20.755Z)
Latitude
-0.00006°
Longitude
15.89955°
Altitude
828.638 km
Speed
7.377 km/s
True Right ascension
00h 05m 29s
True Declination
0° 00' 00"
Sunlit
Object was in full shadow at epoch
Visualization orbit readout
Latitude
Unknown
Longitude
Unknown
Altitude
Unknown
Speed
Unknown
Apparent Right ascension
Unknown
Apparent Declination
Unknown
Sunlit
N/A
Visualization observer readout
Local Sidereal Time
04:57:13
Azimuth
Unknown
Elevation
Unknown
Doppler factor
Unknown
Orbital elements
Apogee altitude
839.169 km
Perigee altitude
574.094 km
Semi-major axis
7,084.769 km
Eccentricity
0.01871
Inclination
74.9736°
RAAN
1.372°
Arg. of periapsis
152.3945°
True anomaly
207.72159°
Mean anomaly
208.7313°
Eccentric anomaly
208.22439°
Mean motion
3.63961 °/min
Orbital period
98.91 mins
BSTAR
0.0011308
Loading maneuver chart data...
Computing Atmospheric mass density...
Loading historical data...
Loading historical data...
Loading historical data...
Loading historical data...
Loading historical data...
Loading historical data...
Loading historical data...
Other satellites on launch #57 in the year 2013 (2013-10-25 UTC)

Documentation

Showing up to 5 results
|